OOMSOMFJ

Guest
Details From OOMS - SEEB INTL
To OMFJ - FUJAIRAH INTL
Flight Number -
Tags generated
Created
Modified
Stats Distance 141 nm / 261 km
Max Altitude 16,300 ft / 4,968 m
Waypoints 3
Social Downloads 0
Likes 0
Share VATSIM

Download

Looking for another format? Having issues loading an existing format? Contact us
Advertisement - Login to hide

Notes

Basic altitude profile: - Ascent Rate: 2500ft/min - Ascent Speed: 250kts - Cruise Altitude: 35000ft - Cruise Speed: 420kts - Descent Rate: 1500ft/min - Descent Speed: 250kts Options: - Use NATs: yes - Use PACOTS: yes - Use low airways: yes - Use high airways: yes

Route

OOMS GERAR OMFJ

ID Type Via Altitude Latitude Longitude Leg Dist Tot Dist Heading (true) Name
O OOMS APT - 0 ft / 0 m 23.59554˚ 58.29378˚ - 0 nm - SEEB INTL
GERAR FIX - 16,300 ft / 4,968 m 24.10000˚ 57.60444˚ 48 nm 48 nm 309° / 309° -
O OMFJ APT - 0 ft / 0 m 25.11212˚ 56.32422˚ 92 nm 141 nm 311° / 311° FUJAIRAH INTL

Altitude Profile

Advertisement - Login to hide

OOMS

Details ICAO OOMS (MCT)
Name SEEB INTL
Region Oman
Timezone Asia/Muscat (UTC+4.0)
Stats Elevation 48 ft / 15 m (AMSL)
Location 23.595536° 58.293781°
Runways 2
Magnetic Variation 1.481° E

METAR

OOMS 210550Z 01010KT CAVOK 32/26 Q1010 NOSIG

Decode

TAF

TAF OOMS 210500Z 2106/2212 04015KT 9000 NSC BECMG 2117/2119 24010KT BECMG 2205/2207 03012KT

Decode

Departure Runways

ID Width Length Bearing (true) Bearing (mag) Surface Threshold Offset Overrun Length
02 98 ft / 30 m 2,498 ft / 761 m 18.94° 17.46° Dirt 0 ft / 0 m 0 ft / 0 m
08 148 ft / 45 m 11,759 ft / 3,584 m 84.98° 83.50° Asphalt 1,375 ft / 419 m 200 ft / 61 m
20 98 ft / 30 m 2,498 ft / 761 m 198.94° 197.46° Dirt 0 ft / 0 m 0 ft / 0 m
26 148 ft / 45 m 11,759 ft / 3,584 m 264.99° 263.51° Asphalt 0 ft / 0 m 200 ft / 61 m

OMFJ

Details ICAO OMFJ (FJR)
Name FUJAIRAH INTL
Region United Arab Emirates
Timezone Asia/Dubai (UTC+4.0)
Stats Elevation 152 ft / 46 m (AMSL)
Location 25.112116° 56.324217°
Runways 1
Magnetic Variation 1.943° E

METAR

OMFJ 210600Z 11007KT 070V140 8000 NSC 33/22 Q1010 A2984

Decode

TAF

Not found

Destination Runways

ID Width Length Bearing (true) Bearing (mag) Surface Threshold Offset Overrun Length
11 148 ft / 45 m 12,296 ft / 3,748 m 112.53° 110.59° Asphalt 2,296 ft / 700 m 328 ft / 100 m
29 148 ft / 45 m 12,296 ft / 3,748 m 292.55° 290.61° Asphalt 0 ft / 0 m 328 ft / 100 m

Approach Navaids

Runway Type Ident Frequency Range Bearing (true) Bearing (mag) Slope Elevation
29 Localiser IFJR 111.50 MHz 18 nm / 33 km 292.53° 290.59° - 152 ft / 46 m (AMSL)
29 Glidescope IFJR 111.50 MHz 10 nm / 19 km 292.54° 290.60° 3.00° 152 ft / 46 m (AMSL)

Popular Alternatives